THAICOM 6

Last updated on Thu Oct 30 2025 00:02:49 GMT+0000 (Coordinated Universal Time)

1 39500U 14002A 25302.50157049 -.00000112 00000+0 00000+0 0 9990 2 39500 0.0537 101.6299 0002934 98.3279 97.2168 1.00273178 43142
UTC large
Height (km)
Speed (km/s)
/
Latitude / Longitude
Inclination (degrees)
Orbital Period (minutes)
Azimuth
Elevation
Range (km)
Doppler Factor

Next 0 passes for location: London (51.5072 / 0.1276)

Sorry there are no passes over London.